Regional Weather Roundup
Issued by NWS

Home | Current Version | Previous Version | Text Only | Print | Product List | Glossary Off
Versions: 1 2 3 4 5 6 7 8 9 10 11 12 13 14 15 16 17 18 19 20 21 22 23 24 25 26 27 28 29 30 31 32 33 34 35 36 37 38 39 40 41 42 43 44 45 46 47 48 49 50

000
ASUS43 KDTX 192210
RWRMI
MICHIGAN HOURLY REGIONAL WEATHER ROUNDUP
NATIONAL WEATHER SERVICE DETROIT/PONTIAC MI
600 PM EDT WED JUL 19 2017

NOTE: "FAIR" INDICATES FEW OR NO CLOUDS BELOW 12,000 FEET WITH NO
SIGNIFICANT WEATHER AND/OR OBSTRUCTION TO VISIBILITY.

MIZ047>049-052>055-059>063-066>070-074>076-081>083-192300-
SOUTHEAST LOWER MICHIGAN

CITY           SKY/WX    TMP DP  RH WIND       PRES   REMARKS
ADRIAN         CLOUDY    87  65  47 NW9       30.06S
ALMA           MOSUNNY   87  59  38 NW6       30.06S
ANN ARBOR      MOSUNNY   87  74  64 VRB6      30.05R HX  95
BAD AXE        SUNNY     81  60  49 W7        30.07F
CARO           SUNNY     85  64  48 W3        30.05S
DETROIT CITY   MOSUNNY   91  66  43 NW9       30.03S HX  93
DETROIT        PTSUNNY   87  71  58 VRB5      30.04R HX  93
FLINT          SUNNY     86  68  54 NW8       30.05F
GROSSE ILE     LGT RAIN  81  73  77 SW5       30.04R
HILLSDALE      LGT RAIN  79  70  73 NW13      30.09R
HOWELL         SUNNY     86  68  55 NW9       30.06S

CITY           SKY/WX    TMP DP  RH WIND       PRES   REMARKS
JACKSON        MOSUNNY   85  70  60 SW8       30.07F
LAMBERTVILLE   PTSUNNY   82  70  66 CALM      30.05R
LANSING        MOSUNNY   87  69  54 NW10      30.06F HX  91
LAPEER         FAIR      85  67  53 NW7       30.06S
MASON          SUNNY     87  70  57 W10       30.06F HX  91
MONROE         CLOUDY    76  73  90 N9        30.07S
MT. CLEMENS    MOSUNNY   87  71  57 E6        30.02F HX  93
PONTIAC        MOSUNNY   87  69  54 NW12      30.04S HX  91
PORT HOPE        N/A     72  67  84 E6        30.07R
PORT HURON     SUNNY     77  66  69 NE9       30.05S
TRI CITIES     SUNNY     86  65  49 NW10G16   30.06S
MIDLAND        FAIR      86  54  33 NW6       30.05S
TROY           SUNNY     89  65  45 NW9       30.05F HX  90
SAGINAW HB     MOSUNNY   86  55  35 NW9       30.04S
$$
MIZ043>046-050>051-056>058-064>065-071>073-077>080-192300-
SOUTHWEST LOWER MICHIGAN

CITY           SKY/WX    TMP DP  RH WIND       PRES   REMARKS
BATTLE CREEK   MOSUNNY   85  73  67 W10       30.08S HX  91
BENTON HARBOR  SUNNY     78  67  68 NW6       30.08F
BIG RAPIDS     SUNNY     84  50  30 NW8       30.07S
COLDWATER      MOSUNNY   87  71  58 W9        30.08S HX  93
FREMONT        FAIR      85  60  42 W10       30.06F
HOLLAND        SUNNY     81  68  64 W8        30.08F
GRAND RAPIDS   PTSUNNY   90  69  50 W8        30.05F HX  94
IONIA          FAIR      89  68  50 W6        30.05F HX  92
KALAMAZOO      MOSUNNY   87  71  58 W7        30.07F HX  93
LUDINGTON      CLOUDY    77  57  49 N8        30.08S
MARSHALL       LGT RAIN  74  73  98 SW3       30.09R
MOUNT PLEASANT SUNNY     87  53  30 NW3       30.05F
MUSKEGON       PTSUNNY   84  61  45 W8        30.06F
SOUTH HAVEN    SUNNY     79  70  74 NW6       30.08F
$$
MIZ016>042-192300-
NORTHERN LOWER MICHIGAN

CITY           SKY/WX    TMP DP  RH WIND       PRES   REMARKS
ALPENA         SUNNY     84  55  36 VRB5      30.06S
BEAVER ISLAND  SUNNY     76  55  47 SW6       30.07F
BELLAIRE       SUNNY     79  47  31 N6        30.08F
CADILLAC       SUNNY     83  51  33 NW9       30.10S
CHARLEVOIX     SUNNY     78  53  42 W6        30.11F
FRANKFORT      SUNNY     79  56  45 NW5       30.08F
GAYLORD        SUNNY     80  47  31 VRB5      30.10S
GRAYLING       SUNNY     81  51  34 NW7       30.10F
HARBOR SPRINGS SUNNY     74  55  51 SW8       30.08F
HOUGHTON LAKE  SUNNY     83  53  35 W12       30.09S
MANISTEE       MOSUNNY   78  60  53 NW7       30.08F
OSCODA         SUNNY     76  65  69 SE6       30.07F
PELLSTON       SUNNY     80  54  40 VRB6      30.08F
ROGERS CITY    SUNNY     78  54  42 N6        30.07S
TRAVERSE CITY  MOSUNNY   81  50  33 NE8       30.07F
$$
MIZ007>008-015-192300-
EASTERN UPPER MICHIGAN

CITY           SKY/WX    TMP DP  RH WIND       PRES   REMARKS
MACKINAC ISLAN MOSUNNY   73  60  63 SW7G17    30.07F
NEWBERRY       PTSUNNY   76  54  46 W8        30.06F
S. S. MARIE    MOSUNNY   77  55  46 NW9       30.05F
MUNISING         N/A     74  57  55 CALM      30.05F
$$
MIZ004>006-011>014-085-192300-
CENTRAL UPPER MICHIGAN

CITY           SKY/WX    TMP DP  RH WIND       PRES   REMARKS
MANISTIQUE     SUNNY     72  60  66 SW9       30.06F
ESCANABA       SUNNY     77  61  57 S9        30.05F
MENOMINEE      SUNNY     79  55  43 S9        30.07F
SAWYER-GWINN   SUNNY     77  55  47 E8        30.06F
$$
MIZ001>003-009>011-084-192300-
WESTERN UPPER MICHIGAN

CITY           SKY/WX    TMP DP  RH WIND       PRES   REMARKS
IRON MOUNTAIN  SUNNY     84  52  33 SW7       30.05F
HOUGHTON       MOSUNNY   76  55  48 W6        30.03F
COPPER HARBOR    N/A     63  53  70 CALM      30.02F
IRONWOOD       PTSUNNY   79  55  43 SE3       30.01F
$$

ABBREVIATIONS USED IN REMARKS
   TC - TEMPERATURE IN CELSIUS
  WCI - WIND CHILL INDEX
   HX - HEAT INDEX
  VSB - VISIBILITY





USA.gov is the U.S. government's official web portal to all federal, state and local government web resources and services.